Regional Weather Roundup
Issued by NWS

Home | Current Version | Previous Version | Text Only | Print | Product List | Glossary On
Versions: 1 2 3 4 5 6 7 8 9 10 11 12 13 14 15 16 17 18 19 20 21 22 23 24 25 26 27 28 29 30 31 32 33 34 35 36 37 38 39 40 41 42 43 44 45 46 47 48 49 50
000
ASUS46 KPQR 231210
RWROR

OREGON REGIONAL WEATHER ROUNDUP
NATIONAL WEATHER SERVICE PORTLAND OR
500 AM PDT SUN APR 23 2017

NOTE: "FAIR" INDICATES FEW OR NO CLOUDS BELOW 12,000 FEET WITH
NO SIGNIFICANT WEATHER AND/OR OBSTRUCTIONS TO VISIBILITY.

ORZ001>013-231300-
NORTHWEST OREGON


CITY           SKY/WX    TMP DP  RH WIND       PRES   REMARKS
ASTORIA        CLOUDY    47  45  93 SE3       29.91F
6HR MIN TEMP:  47; 6HR MAX TEMP:  50; 6HR PCP:  0.03;

NEWPORT        RAIN      50  46  87 S8        29.96F
PORTLAND       CLOUDY    50  43  77 SE3       29.95F
6HR MIN TEMP:  49; 6HR MAX TEMP:  54;

VANCOUVER WA   CLOUDY    51  46  83 E3        29.95F
6HR MIN TEMP:  50; 6HR MAX TEMP:  53;

SCAPPOOSE      CLOUDY    46  45  96 CALM      29.94F
6HR MIN TEMP:  42; 6HR MAX TEMP:  47;

HILLSBORO      CLOUDY    46  45  96 CALM      29.94F
6HR MIN TEMP:  45; 6HR MAX TEMP:  49;

AURORA         CLOUDY    50  43  77 SE6       29.96F
6HR MIN TEMP:  46; 6HR MAX TEMP:  51;

MCMINNVILLE    CLOUDY    48  44  86 MISG      29.95F
6HR MIN TEMP:  46; 6HR MAX TEMP:  50;

SALEM          CLOUDY    49  44  83 S6        29.95F
6HR MIN TEMP:  47; 6HR MAX TEMP:  51;

CORVALLIS      CLOUDY    48  45  87 CALM      29.96F
EUGENE         CLOUDY    48  45  89 S7        29.97F
6HR MIN TEMP:  46; 6HR MAX TEMP:  50;

$$

ORZ021-028-231300-
SOUTHWEST OREGON


CITY           SKY/WX    TMP DP  RH WIND       PRES   REMARKS
NORTH BEND     CLOUDY    48  46  93 S6        29.98F
6HR MIN TEMP:  46; 6HR MAX TEMP:  52; 6HR PCP:  0.01;

BROOKINGS      RAIN      49  48  97 SE6       30.02F FOG
ROSEBURG       CLOUDY    46  43  89 SE3       29.99S
6HR MIN TEMP:  46; 6HR MAX TEMP:  53;

SEXTON SUMMIT  CLOUDY    35  34  96 S12       29.94F WCI  27
6HR MIN TEMP:  35; 6HR MAX TEMP:  40;

MEDFORD        MOCLDY    47  39  74 CALM      29.99S
6HR MIN TEMP:  45; 6HR MAX TEMP:  55;

$$

ORZ014>016-041-231300-
COLUMBIA GORGE


CITY           SKY/WX    TMP DP  RH WIND       PRES   REMARKS
TROUTDALE      CLOUDY    50  45  83 E6        29.96S
6HR MIN TEMP:  50; 6HR MAX TEMP:  55;

HOOD RIVER     MOCLDY    46  43  87 S5        29.94S
THE DALLES     MOCLDY    50  42  74 CALM      29.94S
6HR MIN TEMP:  49; 6HR MAX TEMP:  55;

$$

ORZ029>031-041-044-049-050-061>064-502-503-505>511-231300-
EASTERN OREGON


CITY           SKY/WX    TMP DP  RH WIND       PRES   REMARKS
REDMOND        CLOUDY    39  33  79 CALM      29.92S
6HR MIN TEMP:  34; 6HR MAX TEMP:  45;

BEND           MOCLDY    41  36  81 CALM      29.92F
PRINEVILLE     CLOUDY    41  37  87 CALM      29.92S
KLAMATH FALLS  CLOUDY    39  34  82 CALM      29.94S
6HR MIN TEMP:  34; 6HR MAX TEMP:  46;

LAKEVIEW       CLOUDY    39  34  81 CALM      29.93R
HERMISTON      CLOUDY    50  41  71 CALM      29.91F
6HR MIN TEMP:  50; 6HR MAX TEMP:  54; 6HR PCP: TRACE;

PENDLETON      CLOUDY    47  42  83 SE6       29.92S
6HR MIN TEMP:  46; 6HR MAX TEMP:  52; 6HR PCP: TRACE;

JOHN DAY       CLOUDY    45  40  81 CALM      29.90S
MEACHAM        CLOUDY    40  34  79 CALM      29.91F
6HR MIN TEMP:  40; 6HR MAX TEMP:  42; 6HR PCP: TRACE;

LA GRANDE      CLOUDY    45  37  76 NW9       29.90S
6HR MIN TEMP:  45; 6HR MAX TEMP:  48; 6HR PCP:  0.04;

BAKER CITY     CLOUDY    43  37  79 NW6       29.89F
6HR MIN TEMP:  42; 6HR MAX TEMP:  46; 6HR PCP: TRACE;

BURNS          CLOUDY    43  36  76 W3        29.87F
6HR MIN TEMP:  43; 6HR MAX TEMP:  50;

ROME             N/A     47  30  51 S10       29.84F
6HR MIN TEMP:  43; 6HR MAX TEMP:  58;

ONTARIO        MOCLDY    50  40  68 NW15      29.84R
6HR MIN TEMP:  50; 6HR MAX TEMP:  60; 6HR PCP: TRACE;

$$



USA.gov is the U.S. government's official web portal to all federal, state and local government web resources and services.